Weather History for Worthington, MN

Change the Weather History Date:

Wednesday, October 5, 2011

  Actual Average Record
Temperature  
Mean Temperature 70 °F -  
Max Temperature 82 °F 62 °F 84 °F (1987)
Min Temperature 57 °F 41 °F 23 °F (1988)
Cooling Degree Days 4    
Growing Degree Days 20 (Base 50)    
Moisture  
Dew Point 41 °F    
Average Humidity 36    
Maximum Humidity 59    
Minimum Humidity 17    
Precipitation  
Precipitation 0.00 in - - ()
Sea Level Pressure  
Sea Level Pressure 30.01 in    
Wind  
Wind Speed 15 mph (South)    
Max Wind Speed 23 mph    
Max Gust Speed 30 mph    
Visibility 10 miles    
Events      
Averages and records for this station are not official NWS values.
T = Trace of Precipitation, MM = Missing Value Source: NWS Daily Summary

Daily Weather History Graph

Daily Weather History Graph

Search for Another Location

Airport:

Trip Planner

Search our weather history database for the weather conditions in past years. The results will help you decide how hot, cold, wet, or windy it might be!

Date:

Astronomy

Oct. 05, 2011 Rise Set
Actual Time 7:24 AM CDT 6:56 PM CDT
Civil Twilight 6:55 AM CDT 7:25 PM CDT
Nautical Twilight 6:22 AM CDT 7:58 PM CDT
Astronomical Twilight 5:48 AM CDT 8:31 PM CDT
Moon 3:47 PM CDT (10/5) 1:00 AM CDT (10/5)
Length of Visible Light 12h 29m
Length of Day
11h 32m
Waxing Gibbous, 66% of the Moon is Illuminated
Oct 5
Waxing Gibbous
Oct 11
Full
Oct 19
Last Quarter
Oct 26
New
Nov 2
First Quarter

Hourly Weather History & Observations

Time (CDT) Temp. Dew Point Humidity Pressure Visibility Wind Dir Wind Speed Gust Speed Precip Events Conditions
12:15 AM 66.2 °F 44.6 °F 46% 30.00 in 10.0 mi South 18.4 mph 24.2 mph N/A   Clear
12:35 AM 66.2 °F 44.6 °F 46% 30.00 in 10.0 mi South 16.1 mph - N/A   Clear
12:55 AM 66.2 °F 44.6 °F 46% - 10.0 mi South 15.0 mph - N/A   Clear
1:15 AM 64.4 °F 44.6 °F 49% 30.01 in 10.0 mi South 13.8 mph - N/A   Clear
1:35 AM 64.4 °F 44.6 °F 49% 30.01 in 10.0 mi South 16.1 mph - N/A   Clear
1:55 AM 64.4 °F 44.6 °F 49% 30.01 in 10.0 mi South 13.8 mph - N/A   Clear
2:15 AM 64.4 °F 44.6 °F 49% 30.01 in 10.0 mi South 13.8 mph - N/A   Clear
2:35 AM 64.4 °F 44.6 °F 49% 30.01 in 10.0 mi South 12.7 mph - N/A   Clear
2:55 AM 64.4 °F 44.6 °F 49% 30.01 in 10.0 mi SSW 15.0 mph - N/A   Clear
3:15 AM 64.4 °F 44.6 °F 49% 30.01 in 10.0 mi South 13.8 mph - N/A   Clear
3:35 AM 64.4 °F 44.6 °F 49% 30.01 in 10.0 mi South 15.0 mph - N/A   Clear
3:55 AM 62.6 °F 44.6 °F 52% 30.01 in 10.0 mi South 13.8 mph - N/A   Clear
4:15 AM 62.6 °F 44.6 °F 52% 30.01 in 10.0 mi South 13.8 mph - N/A   Clear
4:55 AM 62.6 °F 42.8 °F 48% 30.01 in 10.0 mi SSW 13.8 mph - N/A   Clear
5:15 AM 62.6 °F 42.8 °F 48% 30.01 in 10.0 mi South 12.7 mph - N/A   Clear
5:35 AM 62.6 °F 42.8 °F 48% - 10.0 mi South 11.5 mph - N/A   Clear
5:55 AM 62.6 °F 42.8 °F 48% 30.01 in 10.0 mi SSW 11.5 mph - N/A   Clear
6:15 AM 60.8 °F 42.8 °F 52% 30.02 in 10.0 mi South 12.7 mph - N/A   Clear
6:35 AM 60.8 °F 42.8 °F 52% 30.02 in 10.0 mi South 12.7 mph - N/A   Clear
6:55 AM 60.8 °F 42.8 °F 52% 30.02 in 10.0 mi South 15.0 mph - N/A   Clear
7:15 AM 59.0 °F 42.8 °F 55% - 10.0 mi South 12.7 mph - N/A   Clear
7:35 AM 57.2 °F 42.8 °F 59% 30.03 in 10.0 mi South 13.8 mph - N/A   Clear
7:55 AM 59.0 °F 42.8 °F 55% 30.03 in 10.0 mi South 13.8 mph - N/A   Clear
8:15 AM 60.8 °F 42.8 °F 52% 30.03 in 10.0 mi South 13.8 mph - N/A   Clear
8:35 AM 60.8 °F 42.8 °F 52% 30.03 in 10.0 mi South 13.8 mph - N/A   Clear
9:15 AM 64.4 °F 42.8 °F 45% 30.03 in 10.0 mi South 12.7 mph - N/A   Clear
9:35 AM 66.2 °F 42.8 °F 43% 30.03 in 10.0 mi South 16.1 mph - N/A   Clear
9:55 AM 68.0 °F 42.8 °F 40% 30.04 in 10.0 mi South 13.8 mph - N/A   Clear
10:15 AM 69.8 °F 42.8 °F 38% 30.04 in 10.0 mi South 15.0 mph - N/A   Clear
10:35 AM 71.6 °F 42.8 °F 35% 30.04 in 10.0 mi South 15.0 mph - N/A   Clear
10:55 AM 73.4 °F 42.8 °F 33% 30.04 in 10.0 mi South 13.8 mph 20.7 mph N/A   Clear
11:15 AM 75.2 °F 42.8 °F 31% 30.06 in 10.0 mi South 16.1 mph - N/A   Clear
11:35 AM 77.0 °F 42.8 °F 29% 30.06 in 10.0 mi South 15.0 mph 19.6 mph N/A   Clear
11:55 AM 78.8 °F 42.8 °F 28% 30.06 in 10.0 mi South 15.0 mph 21.9 mph N/A   Clear
12:15 PM 78.8 °F 41.0 °F 26% - 10.0 mi South 13.8 mph 19.6 mph N/A   Clear
12:35 PM 80.6 °F 41.0 °F 24% 30.03 in 10.0 mi South 16.1 mph 23.0 mph N/A   Clear
12:55 PM 82.4 °F 41.0 °F 23% 30.02 in 10.0 mi South 18.4 mph 21.9 mph N/A   Clear
1:15 PM 82.4 °F 41.0 °F 23% 30.03 in 10.0 mi South 18.4 mph 24.2 mph N/A   Clear
1:35 PM 82.4 °F 41.0 °F 23% 30.01 in 10.0 mi South 17.3 mph 26.5 mph N/A   Clear
1:55 PM 82.4 °F 41.0 °F 23% 30.01 in 10.0 mi South 17.3 mph 24.2 mph N/A   Clear
2:35 PM 82.4 °F 39.2 °F 21% 30.02 in 10.0 mi SSE 19.6 mph 28.8 mph N/A   Clear
2:55 PM 82.4 °F 39.2 °F 21% 30.01 in 10.0 mi SSE 15.0 mph 26.5 mph N/A   Clear
3:15 PM 82.4 °F 39.2 °F 21% 30.01 in 10.0 mi South 23.0 mph 27.6 mph N/A   Clear
3:35 PM 82.4 °F 39.2 °F 21% 30.01 in 10.0 mi SSE 21.9 mph 29.9 mph N/A   Clear
4:15 PM 82.4 °F 37.4 °F 20% 29.99 in 10.0 mi South 16.1 mph 28.8 mph N/A   Clear
4:55 PM 82.4 °F 33.8 °F 17% 29.99 in 10.0 mi South 18.4 mph 27.6 mph N/A   Clear
5:15 PM 82.4 °F 33.8 °F 17% 29.99 in 10.0 mi South 18.4 mph - N/A   Clear
5:35 PM 80.6 °F 33.8 °F 18% 29.98 in 10.0 mi SSE 15.0 mph 26.5 mph N/A   Clear
5:55 PM 80.6 °F 33.8 °F 18% 29.98 in 10.0 mi SSE 16.1 mph 24.2 mph N/A   Clear
6:15 PM 78.8 °F 33.8 °F 20% 29.98 in 10.0 mi SSE 15.0 mph 21.9 mph N/A   Clear
6:35 PM 78.8 °F 33.8 °F 20% - 10.0 mi SSE 15.0 mph - N/A   Clear
6:55 PM 75.2 °F 33.8 °F 22% 29.95 in 10.0 mi SSE 11.5 mph - N/A   Clear
7:15 PM 73.4 °F 35.6 °F 25% 29.95 in 10.0 mi SSE 12.7 mph - N/A   Clear
7:35 PM 73.4 °F 35.6 °F 25% 29.95 in 10.0 mi SSE 10.4 mph - N/A   Clear
8:15 PM 71.6 °F 35.6 °F 27% 29.96 in 10.0 mi SSE 11.5 mph - N/A   Clear
8:35 PM 69.8 °F 35.6 °F 28% 29.96 in 10.0 mi SSE 12.7 mph - N/A   Clear
8:55 PM 69.8 °F 35.6 °F 28% 29.96 in 10.0 mi SSE 13.8 mph 19.6 mph N/A   Clear
9:15 PM 69.8 °F 35.6 °F 28% 29.97 in 10.0 mi SSE 13.8 mph 17.3 mph N/A   Clear
9:35 PM 68.0 °F 35.6 °F 30% 29.97 in 10.0 mi South 15.0 mph 19.6 mph N/A   Clear
9:55 PM 68.0 °F 35.6 °F 30% 29.98 in 10.0 mi SSE 13.8 mph - N/A   Clear
10:15 PM 66.2 °F 35.6 °F 32% 29.98 in 10.0 mi SSE 12.7 mph - N/A   Clear
10:35 PM 66.2 °F 35.6 °F 32% 29.98 in 10.0 mi SSE 10.4 mph - N/A   Clear
10:55 PM 64.4 °F 35.6 °F 34% 29.98 in 10.0 mi SSE 11.5 mph - N/A   Clear
11:15 PM 64.4 °F 35.6 °F 34% 29.98 in 10.0 mi SSE 11.5 mph - N/A   Clear
11:35 PM 64.4 °F 35.6 °F 34% 29.98 in 10.0 mi SSE 11.5 mph - N/A   Clear
11:55 PM 62.6 °F 35.6 °F 37% 29.98 in 10.0 mi SSE 9.2 mph - N/A   Clear